Regional Weather Roundup
Issued by NWS Kansas City/Pleasant Hill, MO

Home | Current Version | Previous Version | Graphics & Text | Print | Product List | Glossary Off
Versions: 1 2 3 4 5 6 7 8 9 10 11 12 13 14 15 16 17 18 19 20 21 22 23 24 25 26 27

000
ASUS43 KEAX 240910
RWREAX

WEATHER ROUNDUP FOR EASTERN KANSAS AND NORTHWEST MISSOURI
NATIONAL WEATHER SERVICE KANSAS CITY/PLEASANT HILL MO
400 AM CDT TUE MAY 24 2016

KSZ040-057-103>105-MOZ028-029-037-043-241000-
...KANSAS CITY METROPOLITAN AREA...

CITY           SKY/WX    TMP DP  RH WIND       PRES   REMARKS
K.C. INTL      PTCLDY    61  59  93 SE6       29.88S
K.C. DOWNTOWN  CLOUDY    65  61  87 E3        29.88R
LEES SUMMIT    MOCLDY    63  60  90 S9        29.90R
OLATHE - IXD   MOCLDY    62  61  96 SE7       29.88F
OLATHE - OJC   PTCLDY    60  59  96 S7        29.89R
LAWRENCE       PTCLDY    60  59  96 SE5       29.88R

$$

MOZ001>008-011>017-020>025-030>033-038>040-044>046-053-054-241000-
...NORTHERN AND CENTRAL MISSOURI...

CITY           SKY/WX    TMP DP  RH WIND       PRES   REMARKS
ST. JOSEPH     MOCLDY    63  60  90 SE5       29.88R
MOSBY            N/A     61  61 100 E3        29.90R
WARRENSBURG    MOCLDY    61  59  94 SE3       29.90S
WHITEMAN AFB   CLEAR     61  61 100 S7        29.90F
CLINTON        CLOUDY    59  59 100 CALM      29.91F FOG
SEDALIA        CLEAR     61  59  93 S7        29.93S
WARSAW         NOT AVBL
CHILLICOTHE      N/A     63  61  93 CALM      29.92R
KIRKSVILLE     CLEAR     64  59  83 SW6       29.93R

$$

MOZ041-047>049-056>058-063>065-088>090-097-241000-
...EASTERN AND SOUTHERN MISSOURI...

CITY           SKY/WX    TMP DP  RH WIND       PRES   REMARKS
ST. LOUIS INTL CLOUDY    70  54  56 S6        29.97S
SPIRIT OF STL  CLOUDY    61  59  93 CALM      29.95F
COLUMBIA       PTCLDY    61  59  93 S6        29.94S
JEFFERSON CITY CLOUDY    64  59  83 CALM      29.94S
ROLLA          PTCLDY    62  56  80 S7        29.95S
OSAGE BEACH      N/A    N/A N/A N/A E3          N/A
SPRINGFIELD    PTCLDY    63  60  90 SE9       29.92S
JOPLIN         PTCLDY    66  62  87 SE7       29.88F
WEST PLAINS    CLOUDY    64  56  75 SE3       29.98S

$$

IAZ060-094-KSZ022-034>040-054-083-096-NEZ052-066-093-241000-
...KANSAS...SOUTHEAST NEBRASKA AND IOWA...

CITY           SKY/WX    TMP DP  RH WIND       PRES   REMARKS
TOPEKA         PTCLDY    61  59  93 SE5       29.86S
MANHATTAN      TSTM      66  62  87 N16G28    29.91R FOG
EMPORIA        CLOUDY    64  63  96 E6        29.86S
CHANUTE        CLOUDY    67  62  84 SE6       29.86S
WICHITA        CLOUDY    70  66  87 SE9       29.81R
OMAHA          CLOUDY    60  58  92 E3        29.83F
LINCOLN        CLOUDY    60  58  92 NE3       29.81F
FALLS CITY     CLOUDY    66  61  84 S12       29.82F
LAMONI         CLOUDY    63  60  90 CALM      29.91R
DES MOINES     CLOUDY    66  62  87 W5        29.90S

$$





USA.gov is the U.S. government's official web portal to all federal, state and local government web resources and services.